Location: Cluny
(50.9333°N, 112.8167°W)
Time: 04:36:51
(UTC-06:00)

Hamsat - Visible Passes

Search period start: 31 October 2014 00:00
Search period end: 09 November 2014 23:00
Orbit: 592 x 629 km, 97.6° (Epoch: 30 October)

Date Brightness Start Highest point End Pass type
(mag) Time Alt. Az. Time Alt. Az. Time Alt. Az.
31 Oct ? 07:22:39 10° NNE 07:26:52 66° ESE 07:31:05 10° S visible
31 Oct ? 20:00:03 10° WSW 20:01:23 11° W 20:02:44 10° WNW visible
01 Nov ? 06:03:08 10° ENE 06:04:33 11° E 06:05:59 10° ESE visible
01 Nov ? 07:36:54 10° NNE 07:41:08 89° WNW 07:45:23 10° SSW visible
01 Nov ? 18:34:55 10° S 18:39:04 67° WSW 18:43:15 10° NNW visible
02 Nov ? 05:16:24 10° NE 05:19:00 16° E 05:21:36 10° SE visible
02 Nov ? 06:51:11 10° N 06:55:23 65° WNW 06:59:35 10° SSW visible
02 Nov ? 17:49:19 10° S 17:53:22 48° W 17:57:26 10° NNW visible
03 Nov ? 05:30:08 10° NE 05:33:24 21° E 05:36:39 10° SE visible
03 Nov ? 18:03:51 10° SSW 18:07:40 35° W 18:11:31 10° NNW visible
04 Nov ? 05:44:03 10° NE 05:47:45 28° E 05:51:27 10° SSE visible
04 Nov ? 18:18:31 10° SSW 18:22:00 26° W 18:25:31 10° NW visible
05 Nov ? 05:58:05 10° NNE 06:02:04 39° E 06:06:04 10° SSE visible
05 Nov ? 18:33:22 10° SW 18:36:22 19° W 18:39:23 10° NW visible
06 Nov ? 06:12:11 10° NNE 06:16:21 53° E 06:20:32 10° S visible
06 Nov ? 18:48:31 10° WSW 18:50:44 14° W 18:52:59 10° NW visible
07 Nov ? 06:26:20 10° NNE 06:30:36 74° ESE 06:34:52 10° S visible
07 Nov ? 19:04:52 10° W 19:05:08 10° W 19:05:25 10° W visible
08 Nov ? 05:06:19 10° ENE 05:08:18 13° E 05:10:16 10° ESE visible
08 Nov ? 06:40:32 10° NNE 06:44:48 81° WNW 06:49:06 10° SSW visible
08 Nov ? 17:38:35 10° S 17:42:42 60° W 17:46:52 10° NNW visible
09 Nov ? 05:19:46 10° NE 05:22:40 18° E 05:25:33 10° SE visible
09 Nov ? 06:54:47 10° N 06:58:59 59° WNW 07:03:12 10° SSW visible
09 Nov ? 17:52:58 10° S 17:56:56 43° W 18:00:57 10° NNW visible
